Weather History for Ely, MN

Change the Weather History Date:

Friday, May 10, 2013

  Actual Average Record
Temperature  
Mean Temperature 39 °F -  
Max Temperature 57 °F 58 °F 82 °F (2007)
Min Temperature 21 °F 35 °F 21 °F (2013)
Degree Days  
Heating Degree Days 26    
Moisture  
Dew Point 19 °F    
Average Humidity 51    
Maximum Humidity 100    
Minimum Humidity 14    
Precipitation  
Precipitation 0.03 in - - ()
Sea Level Pressure  
Sea Level Pressure 30.05 in    
Wind  
Wind Speed 3 mph (South)    
Max Wind Speed 14 mph    
Max Gust Speed 20 mph    
Visibility 10 miles    
Events Rain    
Averages and records for this station are not official NWS values.
T = Trace of Precipitation, MM = Missing Value Source: NWS Daily Summary

Daily Weather History Graph

Daily Weather History Graph

Search for Another Location

Airport:

Trip Planner

Search our weather history database for the weather conditions in past years. The results will help you decide how hot, cold, wet, or windy it might be!

Date:

Astronomy

May. 10, 2013 Rise Set
Actual Time 5:35 AM CDT 8:32 PM CDT
Civil Twilight 4:59 AM CDT 9:09 PM CDT
Nautical Twilight 4:13 AM CDT 9:55 PM CDT
Astronomical Twilight 3:17 AM CDT 10:52 PM CDT
Moon 5:59 AM CDT (5/10) 9:24 PM CDT (5/10)
Length of Visible Light 16h 09m
Length of Day
14h 57m
New Moon, 0% of the Moon is Illuminated
May 10
New Moon
May 17
First Quarter
May 24
Full
May 31
Last Quarter
Jun 8
New

Hourly Weather History & Observations

Time (CDT) Temp. Windchill Dew Point Humidity Pressure Visibility Wind Dir Wind Speed Gust Speed Precip Events Conditions
12:13 AM 28.4 °F - 26.6 °F 93% 30.22 in 10.0 mi Calm Calm - N/A   Clear
12:33 AM 28.4 °F - 26.6 °F 93% 30.22 in 10.0 mi Calm Calm - N/A   Clear
12:53 AM 28.4 °F - 24.8 °F 86% 30.22 in 10.0 mi Calm Calm - N/A   Clear
1:13 AM 26.6 °F 22.6 °F 24.8 °F 93% 30.22 in 10.0 mi NNE 3.5 mph - N/A   Clear
1:32 AM 26.6 °F - 24.8 °F 93% 30.21 in 10.0 mi Calm Calm - N/A   Clear
1:53 AM 26.6 °F - 24.8 °F 93% 30.21 in 10.0 mi Calm Calm - N/A   Clear
2:13 AM 26.6 °F - 24.8 °F 93% 30.20 in 10.0 mi Calm Calm - N/A   Clear
2:32 AM 26.6 °F - 24.8 °F 93% 30.20 in 10.0 mi Calm Calm - N/A   Clear
2:53 AM 26.6 °F - 24.8 °F 93% 30.20 in 10.0 mi Calm Calm - N/A   Clear
3:13 AM 26.6 °F - 23.0 °F 86% 30.20 in 10.0 mi Calm Calm - N/A   Clear
3:32 AM 24.8 °F - 21.2 °F 86% 30.19 in 10.0 mi Calm Calm - N/A   Clear
3:53 AM 24.8 °F - 21.2 °F 86% 30.19 in 10.0 mi Calm Calm - N/A   Clear
4:13 AM 23.0 °F - 23.0 °F 100% 30.19 in 10.0 mi Calm Calm - N/A   Clear
4:32 AM 24.8 °F - 23.0 °F 93% 30.19 in 10.0 mi Calm Calm - N/A   Clear
4:53 AM 24.8 °F - 21.2 °F 86% 30.18 in 10.0 mi Calm Calm - N/A   Clear
5:13 AM 23.0 °F - 21.2 °F 93% 30.18 in 10.0 mi Calm Calm - N/A   Clear
5:33 AM 23.0 °F - 21.2 °F 93% 30.18 in 10.0 mi Calm Calm - N/A   Clear
5:53 AM 21.2 °F - 21.2 °F 100% 30.17 in 10.0 mi Calm Calm - N/A   Clear
6:13 AM 23.0 °F - 21.2 °F 93% 30.18 in 10.0 mi Calm Calm - N/A   Clear
6:32 AM 24.8 °F - 21.2 °F 86% 30.17 in 10.0 mi Calm Calm - N/A   Clear
6:53 AM 26.6 °F - 24.8 °F 93% 30.17 in 10.0 mi Calm Calm - N/A   Clear
7:13 AM 32.0 °F 28.7 °F 23.0 °F 69% 30.16 in 10.0 mi East 3.5 mph - N/A   Clear
7:32 AM 33.8 °F 27.0 °F 21.2 °F 60% 30.16 in 10.0 mi East 8.1 mph - N/A   Clear
7:53 AM 35.6 °F 28.0 °F 21.2 °F 56% 30.16 in 10.0 mi ESE 10.4 mph - N/A   Clear
8:13 AM 35.6 °F 29.9 °F 19.4 °F 52% 30.16 in 10.0 mi ESE 6.9 mph - N/A   Clear
8:33 AM 37.4 °F 30.8 °F 19.4 °F 48% 30.16 in 10.0 mi ESE 9.2 mph - N/A   Clear
8:53 AM 37.4 °F 30.8 °F 17.6 °F 45% 30.15 in 10.0 mi ESE 9.2 mph - N/A   Clear
9:12 AM 39.2 °F 33.6 °F 17.6 °F 42% 30.14 in 10.0 mi ESE 8.1 mph - N/A   Clear
9:33 AM 41.0 °F 37.1 °F 17.6 °F 39% 30.13 in 10.0 mi SE 5.8 mph - N/A   Clear
9:53 AM 42.8 °F - 15.8 °F 34% 30.12 in 10.0 mi Calm Calm - N/A   Clear
10:12 AM 42.8 °F - 14.0 °F 31% 30.12 in 10.0 mi Calm Calm - N/A   Clear
10:32 AM 44.6 °F - 14.0 °F 29% 30.12 in 10.0 mi Calm Calm - N/A   Clear
10:53 AM 46.4 °F 42.9 °F 15.8 °F 29% 30.11 in 10.0 mi SE 6.9 mph - N/A   Clear
11:13 AM 46.4 °F 44.3 °F 12.2 °F 25% 30.09 in 10.0 mi ESE 4.6 mph - N/A   Clear
11:32 AM 48.2 °F - 12.2 °F 24% 30.08 in 10.0 mi SSE 3.5 mph - N/A   Clear
11:53 AM 50.0 °F - 12.2 °F 22% 30.06 in 10.0 mi SSE 6.9 mph 16.1 mph N/A   Clear
12:13 PM 51.8 °F - 14.0 °F 22% 30.05 in 10.0 mi SSW 9.2 mph - N/A   Clear
12:33 PM 51.8 °F - 12.2 °F 21% 30.06 in 10.0 mi South 8.1 mph 17.3 mph N/A   Clear
12:52 PM 53.6 °F - 10.4 °F 18% 30.04 in 10.0 mi SW 9.2 mph - N/A   Clear
1:13 PM 53.6 °F - 10.4 °F 18% 30.02 in 10.0 mi SW 10.4 mph - N/A   Clear
1:33 PM 53.6 °F - 10.4 °F 18% 30.02 in 10.0 mi South 6.9 mph - N/A   Clear
1:53 PM 55.4 °F - 10.4 °F 17% 30.01 in 10.0 mi South 3.5 mph - N/A   Clear
2:13 PM 55.4 °F - 12.2 °F 18% 30.00 in 10.0 mi SSW 10.4 mph 16.1 mph N/A   Clear
2:33 PM 57.2 °F - 8.6 °F 14% 29.99 in 10.0 mi SSW 9.2 mph 19.6 mph N/A   Clear
2:52 PM 57.2 °F - 10.4 °F 16% 29.98 in 10.0 mi SW 8.1 mph - N/A   Clear
3:13 PM 55.4 °F - 12.2 °F 18% 29.97 in 10.0 mi SSW 8.1 mph 16.1 mph N/A   Clear
3:33 PM 57.2 °F - 12.2 °F 17% 29.96 in 10.0 mi South 11.5 mph 19.6 mph N/A   Clear
3:52 PM 55.4 °F - 12.2 °F 18% 29.95 in 10.0 mi SSE 10.4 mph - N/A   Clear
4:13 PM 55.4 °F - 14.0 °F 20% 29.94 in 10.0 mi SSE 10.4 mph - N/A   Clear
4:33 PM 55.4 °F - 14.0 °F 20% 29.94 in 10.0 mi South 9.2 mph - N/A   Clear
4:52 PM 55.4 °F - 15.8 °F 21% 29.93 in 10.0 mi South 6.9 mph - N/A   Clear
5:13 PM 55.4 °F - 15.8 °F 21% 29.93 in 10.0 mi South 6.9 mph - N/A   Clear
5:33 PM 53.6 °F - 15.8 °F 22% 29.92 in 10.0 mi South 4.6 mph - N/A   Clear
5:52 PM 53.6 °F - 14.0 °F 21% 29.92 in 10.0 mi South 9.2 mph - N/A   Clear
6:13 PM 53.6 °F - 12.2 °F 19% 29.90 in 10.0 mi South 8.1 mph - N/A   Clear
6:33 PM 53.6 °F - 12.2 °F 19% 29.88 in 10.0 mi South 11.5 mph 16.1 mph N/A   Clear
6:52 PM 51.8 °F - 14.0 °F 22% 29.88 in 10.0 mi South 12.7 mph - N/A   Clear
7:13 PM 50.0 °F - 12.2 °F 22% 29.87 in 10.0 mi South 8.1 mph - N/A   Scattered Clouds
7:32 PM 50.0 °F - 12.2 °F 22% 29.86 in 10.0 mi South 9.2 mph - N/A   Scattered Clouds
7:53 PM 48.2 °F - 12.2 °F 24% 29.86 in 10.0 mi South 6.9 mph - N/A   Scattered Clouds
8:13 PM 48.2 °F - 12.2 °F 24% 29.87 in 10.0 mi SSE 4.6 mph - N/A   Mostly Cloudy
8:32 PM 46.4 °F 45.2 °F 14.0 °F 27% 29.87 in 10.0 mi SSE 3.5 mph - N/A   Overcast
8:53 PM 46.4 °F 45.2 °F 14.0 °F 27% 29.86 in 10.0 mi South 3.5 mph - N/A   Overcast
9:13 PM 44.6 °F 43.1 °F 14.0 °F 29% 29.87 in 10.0 mi South 3.5 mph - N/A   Overcast
9:32 PM 44.6 °F - 15.8 °F 31% 29.87 in 10.0 mi Calm Calm - N/A   Mostly Cloudy
9:53 PM 42.8 °F - 17.6 °F 36% 29.88 in 10.0 mi Calm Calm - N/A   Overcast
10:13 PM 42.8 °F 40.1 °F 17.6 °F 36% 29.88 in 10.0 mi NW 4.6 mph - N/A   Overcast
10:33 PM 44.6 °F 38.1 °F 35.6 °F 71% 29.89 in 10.0 mi NNW 13.8 mph 19.6 mph N/A   Overcast
10:52 PM 44.6 °F 39.2 °F 39.2 °F 81% 29.90 in 10.0 mi NW 10.4 mph 19.6 mph N/A Rain Light Rain
11:13 PM 39.2 °F 34.2 °F 37.4 °F 93% 29.90 in 5.0 mi WNW 6.9 mph - N/A Rain Light Rain
11:33 PM 39.2 °F 35.9 °F 39.2 °F 100% 29.89 in 7.0 mi NNW 4.6 mph - 0.01 in Rain Light Rain
11:52 PM 39.2 °F 35.9 °F 39.2 °F 100% 29.90 in 10.0 mi WNW 4.6 mph - 0.03 in Rain Light Rain